Location: ???????????
(44.4062°N, 135.3991°E)
Time: 00:22:48
(UTC+00:00)

Cosmos 1634 Rocket - Pass Details

Date: 19 May 2025
Orbit: 960 x 991 km, 82.9° (Epoch: 16 June)

Event Time Altitude Azimuth Distance (km) Brightness Sun altitude
Rises 18:20:42 0° 351° (N) 3,715 7.5 -10.4°
Reaches altitude 10° 18:23:14 10° 350° (N) 2,763 6.8 -10.0°
Maximum altitude 18:29:36 83° 264° (W) 1,002 4.0 -9.2°
Drops below altitude 10° 18:35:53 10° 177° (S) 2,736 6.0 -8.3°
Sets 18:38:23 0° 177° (S) 3,677 6.7 -7.9°
